Other Public Products
Issued by NWS Grand Forks, ND

Home | Current Version | Previous Version | Text Only | Print | Product List | Glossary On
Versions: 1 2 3 4 5 6 7 8 9 10 11 12 13 14 15 16 17 18 19 20 21 22 23 24 25 26 27 28 29 30 31 32 33 34 35 36 37 38 39 40 41 42 43 44 45 46 47 48 49 50
000
FPUS83 KFGF 111710
OPUFGF
PRAIRIE TO PINES WEATHER ROUNDUP
NATIONAL WEATHER SERVICE EASTERN NORTH DAKOTA/GRAND FORKS ND
1100 AM CST THU FEB 11 2016

 **SATELLITE DATA USED TO AUGMENT SKY COVER AT AUTOMATED STATIONS**
 *****  WEATHER ACROSS EASTERN NORTH DAKOTA  *****

CITY           SKY/WX    TMP DP  RH WIND       PRES   REMARKS
GRAND FORKS    FLURRIES  10   3  73 SW7       30.26S WCI  -1
GRAND FORKS AF CLOUDY    10   2  71 SW8       30.24F WCI  -2
GRAND CITY NWS NOT AVBL
BUXTON         NOT AVBL
DEVILS LAKE    FLURRIES  11   6  81 CALM      30.19S
FARGO          CLOUDY    11   1  64 CALM      30.25F
WAHPETON ARPT  CLOUDY    10   5  79 SE6       30.26S WCI   1
$$

 *****  WEATHER ACROSS CENTRAL AND WESTERN NORTH DAKOTA  *****

CITY           SKY/WX    TMP DP  RH WIND       PRES   REMARKS
JAMESTOWN      CLOUDY    10   7  87 S6        30.16S FOG     WCI   0
BISMARCK       LGT SNOW  23  16  74 CALM      30.14R
MINOT          CLOUDY    17   8  67 N6        30.16R WCI   9
MINOT AFB      LGT SNOW  16  12  86 NE5       30.16R FOG     WCI   9
GARRISON         N/A     18  12  77 E6        30.13R WCI  10
WILLISTON      LGT SNOW  23  19  85 NE5       30.13R VSB 1   WCI  17
DICKINSON      LGT SNOW  23  20  88 NE9       30.01R FOG     WCI  13
HETTINGER      LGT SNOW  30  27  88 E7        30.00S VSB 3/4 WCI  23
$$

 *****  OTHER OBSERVATIONS NORTHEAST NORTH DAKOTA  *****

CITY           SKY/WX    TMP DP  RH WIND       PRES   REMARKS
WALHALLA       FAIR      10   9  92 NW7       30.24S WCI   0
LANGDON        CLOUDY    10   5  79 W6        30.17S WCI   1
CAVALIER       CLOUDY    10   5  79 SW5       30.24S WCI   2
GRAFTON        CLOUDY    10   5  79 SW8       30.27S WCI  -1
CANDO          NOT AVBL
FORT TOTTEN      N/A     13   8  81 CALM      29.95S
ROLLA          PTSUNNY    9   5  85 N3        30.16S
RUGBY          PTSUNNY   10   7  85 E5        30.17F WCI   2
 ***** THE ABOVE OBSERVATIONS ARE NON NWS ARE NOT QUALITY
        CONTROLLED AND MAY MIS-REPORT RAIN FOR SNOW...
$$

 *****  OTHER OBSERVATIONS SOUTHEAST NORTH DAKOTA *****

CITY           SKY/WX    TMP DP  RH WIND       PRES   REMARKS
COOPERSTOWN    NOT AVBL
VALLEY CITY    CLOUDY     9   1  72 S3        30.21S
OAKES          CLOUDY    14   9  79 S6        30.18F WCI   5
GWINNER        CLOUDY    12   9  85 E7        30.20F WCI   2
SHEYENNE NWR     N/A     11   4  72 SE3       29.95S
BUFFALO        NOT AVBL
WYNDMERE       NOT AVBL
 ***** THE ABOVE OBSERVATIONS ARE NON NWS ARE NOT QUALITY
       CONTROLLED AND MAY MIS-REPORT RAIN FOR SNOW...
$$

  *****  WEATHER ACROSS NORTHERN MINNESOTA  *****

CITY           SKY/WX    TMP DP  RH WIND       PRES   REMARKS
FLAG ISLAND    MOSUNNY    0  -8  71 CALM      30.20S
WARROAD        MOSUNNY    5  -4  66 W6        30.21S WCI  -6
ROSEAU         MOSUNNY    3  -2  78 SW6       30.21F WCI  -8
HALLOCK        CLOUDY     9   1  72 SW7       30.24S WCI  -3
THF RVR FALLS  CLOUDY     7  -4  61 SW6       30.24S WCI  -3
HALSTAD        NOT AVBL
FOSSTON        CLOUDY     5  -2  72 SW6       30.23S WCI  -6
BAUDETTE       CLOUDY     5  -6  60 W3        30.19F
WASKISH        CLOUDY     5  -6  61 SW6       30.20F WCI  -6
CROOKSTON      CLOUDY     9   1  72 SW7       30.27S WCI  -3
$$
  *****  WEATHER ACROSS CENTRAL AND WEST MINNESOTA  *****

CITY           SKY/WX    TMP DP  RH WIND       PRES   REMARKS
BEMIDJI        CLOUDY     0  -6  74 CALM      30.20F
PARK RAPIDS    CLOUDY     3  -5  69 S3        30.20F
WADENA         CLOUDY     7   0  72 S3        30.22S
DETROIT LAKES  CLOUDY     7   1  78 S3        30.22S
MOORHEAD       CLOUDY     9   0  66 CALM      30.26S
FERGUS FALLS   CLOUDY    10   3  72 S5        30.27F WCI   2
ELBOW LAKE     CLOUDY    11   4  72 S8        30.24S HAZE    WCI  -1
MORRIS MN      CLOUDY    10   7  85 S6        30.23F WCI   1
STAPLES        CLOUDY     3  -4  72 S5        30.23F WCI  -6
WHEATON        CLOUDY    12   9  85 SE7       30.26F WCI   2
$$
  *****  WEATHER ELSEWHERE ACROSS MINNESOTA  *****

CITY           SKY/WX    TMP DP  RH WIND       PRES   REMARKS
DULUTH         CLOUDY     4  -8  57 W6        30.21F WCI  -7
INTRNTL FALLS  CLOUDY     4  -7  60 W7        30.20F WCI  -8
ELY            CLOUDY     0  -6  78 SW3       30.17F
CLOQUET        CLOUDY     3 -11  51 W7        30.23S WCI  -9
BRAINERD       CLOUDY     4  -5  66 CALM      30.24F
HIBBING        CLOUDY     2  -6  69 CALM      30.20F
ALEXANDRIA     CLOUDY    11   1  64 S8        30.22F WCI  -1
SAINT CLOUD    CLOUDY     8  -3  61 S6        30.28F WCI  -2
MINNEAPOLIS    MOSUNNY   11  -4  51 S3        30.33S
$$

  *****  WEATHER ACROSS SOUTH DAKOTA  *****

CITY           SKY/WX    TMP DP  RH WIND       PRES   REMARKS
SIOUX FALLS    CLOUDY    16   7  67 S10       30.23F WCI   4
BROOKINGS      LGT SNOW  14   8  77 S12       30.18F WCI   0
WATERTOWN      LGT SNOW  14   8  77 S10       30.16S WCI   1
HURON          CLOUDY    20  15  81 SE12      30.17F WCI   8
SISSETON         N/A     11   6  81 S9        30.21F WCI  -2
ABERDEEN       LGT SNOW  19  14  81 S8        30.18S WCI   9
MITCHELL       LGT SNOW  21  16  81 S17       30.18F WCI   7
PIERRE         CLOUDY    26  23  88 SE9       30.10S WCI  17
MOBRIDGE       LGT SNOW  24  21  88 SE9       30.08S VSB 3/4 WCI  14
RAPID CITY     SUNNY     40  33  76 VRB3      30.01S
$$

  *****  SOME WEATHER IN NEARBY STATES *****

CITY           SKY/WX    TMP DP  RH WIND       PRES   REMARKS
GLASGOW MT     CLOUDY    29  24  82 NE8       30.11R HAZE    WCI  21
GREAT FALLS MT SUNNY     48  28  46 SW13      30.17R
CHEYENNE WY    CLOUDY    49  17  28 W24G36    30.14R
SCOTTSBLUFF NE SUNNY     50  27  40 NW15      30.10R
OMAHA NE       CLOUDY    18   6  59 SE6       30.32S WCI  10
DES MOINES IA  MOSUNNY   14   0  53 S3        30.35R
DAVENPORT IA   SUNNY     17   1  49 VRB5      30.36S WCI  10
CHICAGO IL     MOSUNNY   15   0  51 N5        30.32S WCI   8
EAU CLAIRE WI  SUNNY      6  -5  60 W7        30.32R WCI  -6
LA CROSSE WI   SUNNY      9  -3  58 CALM      30.36S
$$

  *****  SOME NATIONAL WEATHER *****

CITY           SKY/WX    TMP DP  RH WIND       PRES   REMARKS
LA GUARDIA NY  CLOUDY    25   0  33 W17G33    29.91S WCI  12
RALEIGH NC     SUNNY     35   5  28 W13G21    30.20F
ATLANTA GA     SUNNY     46  17  31 CALM      30.18F
NEW ORLEANS LA MOSUNNY   71  55  56 W17G25    30.23F
OKLAHOMA CITY  MOSUNNY   51  31  46 N9        30.21R
ALBUQUERQUE NM SUNNY     48  20  32 N8        30.38R
SALT LAKE CITY FOG       30  26  85 CALM      30.47R VSB 1
LOS ANGELES CA SUNNY     71  34  25 CALM      30.11R
BOISE ID       MOSUNNY   36  30  79 S5        30.40S
SEATTLE WA     CLOUDY    48  46  93 SE5       30.18S
$$

*** WEATHER ACROSS MANITOBA...SASKATCHEWAN AND ONTARIO ***
                ***ONTARIO***

CITY           SKY/WX    TMP DP  RH WIND       PRES   REMARKS
GERALDTON      PTSUNNY   -2 -11  65 W9        30.01F WCI -18
THUNDER BAY    CLOUDY     1  -6  71 W8        30.19F WCI -12
SIOUX LOOKOUT  FLURRIES   1  -4  78 W9        30.09F WCI -14
TORONTO        MOSUNNY   10  -2  56 NW10      30.05R WCI  -3
BIG TROUT LK   CLOUDY   -18 -26  69 NW14G25   29.97R HAZE    WCI -42
PICKLE LAKE    CRYSTALS  -2 -11  65 W12G20    29.97F WCI -20
DRYDEN         CLOUDY     1  -4  78 W10       30.11F WCI -14
KENORA         NOT AVBL
$$
                *** MANITOBA***

CITY           SKY/WX    TMP DP  RH WIND       PRES   REMARKS
BRANDON        FLURRIES   9   1  72 E8        30.22R WCI  -4
DAUPHIN        CLOUDY     5   0  78 N3        30.29R
ISLAND LAKE    FLURRIES -15 -20  76 NW12      30.12S WCI -36
PILOT MOUND      N/A      7   3  85 N7          N/A  WCI  -5
THE PAS        MOSUNNY   -8 -15  71 NW9       30.30S WCI -25
THOMPSON       MOSUNNY  -15 -24  64 NW13G22   30.20R WCI -37
WINNIPEG       FLURRIES   3  -2  78 NW7       30.25F WCI  -9
LYNN LAKE      LGT SNOW -17 -24  70 N14G25    30.25R WCI -40
CHURCHILL      CRYSTALS -27 -35  68 NW20G29   30.16  VSB 1   WCI -58
GILLAM         SUNNY    -20 -29  63 NW16      30.13S WCI -46
$$
                ***SASKATCHEWAN***

CITY           SKY/WX    TMP DP  RH WIND       PRES   REMARKS
ESTEVAN        NOT AVBL
KINDERSLEY     NOT AVBL
LLOYDMINSTER   FLURRIES  12   9  85 SE9       30.21R WCI   0
PRINCE ALBERT  FLURRIES   5   1  85 NE5       30.32R WCI  -4
REGINA         FLURRIES  16  12  86 N2        30.19R
YORKTON        FLURRIES   5   1  85 N9        30.23R WC1F1C2F2C3F3C4F4C5F5C6F6C7F7C8F8C9F9CaFaCbFbCcFcCdFdCe!


USA.gov is the U.S. government's official web portal to all federal, state and local government web resources and services.